STARLINK-32483, 61856

Orbit data source: Space-Track

STARLINK-32483, 61856 is a payload satellite owned by SpaceX/Seattle (US) in LEO that was launched on Thu, 07 Nov 2024 UTC via an FALCON 9 launch vehicle from the Air Force Eastern Test Range (AFETR). Payloads include a variety of satellites, spacecraft, and rockets equipped with specific instruments for various scientific and technological missions. These include communications satellites like Starlink; space stations such as the ISS; scientific satellites like the Hubble; Earth observation satellites from companies like Planet Labs, Umbra, and HawkEye 360; GPS; miniature CubeSats for education and research; and military/defense satellites.

Loading next visibility...
STARLINK-32483 details
Identifier
61856, 2024-202M
Orbit
LEO
Last TLE update8 hours ago
Origin
Flag of USSpaceX/Seattle (US)
ManufacturerSpaceX/Seattle
MissionOperational spacecraft
Bus & MotorSTARLINK V2M, Unknown motor
Mass730 kg wet, ~700 kg dry
Launch date (UTC)
2024-11-07 (2 months ago)
Launch vehicle
FALCON 9
Launch site
Air Force Eastern Test Range (AFETR)
Object type
Payload
Rocket body
Debris
Shape & HBRUnknown
Radar Cross SectionLarge (>1 m²)

Expand to show TLE details & history

TLE from 8 hours ago
0 STARLINK-32483
1 61856U 24202M   24361.58390840  .00002574  00000-0  68803-4 0  9996
2 61856  42.9993 200.9527 0001684 258.0185 102.0483 15.40722079  8235
Epoch: 2024-12-26T14:00Z
Definitive object data (Epoch: 2024-12-26T14:00:49.685Z)
Latitude-0.00002°
Longitude-104.81555°
Altitude443.991 km
Speed7.647 km/s
True Right ascension13h 23m 48s
True Declination0° 00' 00"
Sunlit
Object was in daylight at TLE epoch
Visualization TLE readout
Latitude13.72252°
Longitude58.05574°
Altitude443.209 km
Speed7.649 km/s
Apparent Right ascension03h 24m 02s
Apparent Declination-32° 14' 06"
Sunlit
Object is in daylight
Visualization observer readout
Local Sidereal Time21:52:08
Azimuth119.527° SE
Elevation-15.242°
Doppler factor1
Orbital elements
Apogee altitude447.083 km
Perigee altitude444.784 km
Semi-major axis6,824.07 km
Eccentricity0.0001684
Inclination42.9993°
RAAN200.9527°
Arg. of periapsis258.0185°
True anomaly102.06717°
Mean anomaly102.0483°
Eccentric anomaly102.05774°
Mean motion3.85015 °/min
BSTAR0.000068803
Orbital period93.5 mins
Loading maneuver chart data...
Loading historical data...
Loading historical data...
Loading historical data...
Loading historical data...
Loading historical data...
Loading historical data...
Loading historical data...

STARLINK-32483 Visibility forecast

Observer location: undefined°, undefined

Span
Click to sort rows by Start time (UTC) header in descending order
Start Az.
Max El. time (UTC)
Max El. Az.
Max El.
End time (UTC)
End Az.
5 mins2024-12-27 16:40:58.908Z210.075° SW2024-12-27 16:42:58.908Z155.454° SSE31.176°2024-12-27 16:45:58.908Z84.834° E
5 mins2024-12-27 18:18:58.908Z270.561° WNW2024-12-27 18:20:58.908Z339.225° N41.908°2024-12-27 18:23:58.908Z68.814° E
5 mins2024-12-27 19:56:58.908Z293.159° NW2024-12-27 19:58:58.908Z338.811° N36.829°2024-12-27 20:01:58.908Z79.421° E
5 mins2024-12-27 21:35:58.908Z276.729° WNW2024-12-27 21:37:58.908Z157.49° SSE40.258°2024-12-27 21:40:58.908Z120.49° SE
|